Skip Page Navigation
NASA JPL Caltech
NASA Logo - Jet Propulsion Laboratory + View the NASA Portal
+ Center for Near-Earth Object Studies
JPL Home Earth Solar System Stars & Galaxies Technology
JPL Solar System Dynamics
BODIES ORBITS EPHEMERIDES TOOLS PHYSICAL DATA DISCOVERY FAQ SITE MAP
IMPORTANT: The SSD Announcement email list is now available. Major changes are coming in the near future, including possible hostname and/or URL changes. To be notified of such changes, subscribe to this email list.

Please visit this page for more details.


JPL Small-Body Database Browser
Search: [ help ]  
17467 (1990 VE6)
Classification: Main-belt Asteroid          SPK-ID: 2017467
Ephemeris | Orbit Diagram | Orbital Elements | Mission Design | Physical Parameters | Discovery Circumstances | Close-Approach Data ]

[ show orbit diagram ]
Orbital Elements at Epoch 2458600.5 (2019-Apr-27.0) TDB
Reference: JPL 21 (heliocentric ecliptic J2000)
 Element Value Uncertainty (1-sigma)   Units 
e .08931635602405462 4.4279e-08  
a 3.018467100220435 1.9806e-08 au
q 2.748868618050251 1.3116e-07 au
i 10.50293601970057 4.9366e-06 deg
node 201.9245129652005 2.157e-05 deg
peri 197.6334268770286 3.1259e-05 deg
M 173.1948865910772 2.4199e-05 deg
tp 2457678.967488216456
(2016-Oct-17.46748822)
0.00012562 TDB
period 1915.48209518079
5.24
1.8853e-05
5.162e-08
d
yr
n .1879422422719236 1.8498e-09 deg/d
Q 3.288065582390619 2.1575e-08 au
  Orbit Determination Parameters
   # obs. used (total)      1381  
   data-arc span      10404 days (28.48 yr)  
   first obs. used      1990-11-15  
   last obs. used      2019-05-11  
   planetary ephem.      DE431  
   SB-pert. ephem.      SB431-N16  
   condition code      0  
   norm. resid. RMS      .53388  
   source      ORB  
   producer      Otto Matic  
   solution date      2019-May-30 02:31:08  

Additional Information
 Earth MOID = 1.75712 au 
 Jupiter MOID = 2.14097 au 
 T_jup = 3.216 
[ show covariance matrix ]

Ephemeris | Orbit Diagram | Orbital Elements | Mission Design | Physical Parameters | Discovery Circumstances | Close-Approach Data ]

Physical Parameter Table
Parameter Symbol Value Units Sigma Reference Notes
absolute magnitude H 13.5   n/a MPO302172  
diameter diameter 6.960 km 0.240 urn:nasa:pds:neowise_diameters_albedos::2.0[mainbelt] (http://adsabs.harvard.edu/abs/2011ApJ...741...68M)  
geometric albedo albedo 0.110   0.008 urn:nasa:pds:neowise_diameters_albedos::2.0[mainbelt] (http://adsabs.harvard.edu/abs/2011ApJ...741...68M)  

17467 (1990 VE6)          Discovered 1990-Nov-15 by Elst, E. W. at La Silla
Reference: 20001013/Numbers.arcLast Updated: 2004-04-19

[ show close-approach data ]
Alternate Designations
 1990 VE6 = 1998 HK76 
Ephemeris | Orbit Diagram | Orbital Elements | Mission Design | Physical Parameters | Discovery Circumstances | Close-Approach Data ]
ABOUT SSD CREDITS/AWARDS PRIVACY/COPYRIGHT GLOSSARY LINKS
FirstGov 2020-Jan-20 13:10 UT
(server date/time)  
NASA Home Page
Site Manager:   Ryan S. Park
Webmaster  Alan B. Chamberlin